Flag for New Zealand Weather past 2 weeks in Gisborne, New Zealand

Now
55 °F

Scattered clouds.


Feels Like: 49 °F
Forecast: 46 / 53 °F
Wind: 30 mph from Southwest

Location: Auckland Airport

Current Time: May 25, 2015 at 8:22:04 AM

Latest Report: May 25, 2015 at 8:00 AM


Visibility: N/A

Pressure: 29.74 "Hg

Humidity: 67%

Dew point: 45 °F

Location of GisborneLocation

Historic Weather in Gisborne — Graph

°F

Gisborne temperature yesterday

Maximum temperature yesterday: 59 °F (at 2:30 AM)
Minimum temperature yesterday: 54 °F (at 8:00 AM)
Average temperature yesterday: 57 °F

Past Weeks' High & Low Weather Summary

 TemperatureHumidityPressure
High68 °F (May 11, 1:00 PM)100% (May 10, 5:30 PM)30.21 "Hg (May 10, 5:30 PM)
Low45 °F (May 20, 7:00 AM)55% (May 16, 12:00 PM)29.15 "Hg (May 23, 6:30 PM)
Average57 °F84%29.85 "Hg
* Reported May 10 7:00 AM — May 25 7:00 AM, Gisborne, Weather by CustomWeather, © 2015

Note: Actual official high and low records may vary slightly from our data, if they occured in-between our weather recording intervals... More about our weather records

Advertising

Gisborne weather history for previous 24 hours

 ConditionsComfort  
Time TempWeatherWind HumidityBarometerVisibility
7:00 AM
Mon, May 25
54 °FLight rain. Broken clouds.36 mph77%29.74 "HgN/A
6:30 AM55 °FCloudy.29 mph72%29.71 "HgN/A
6:00 AM54 °FPartly cloudy.23 mph77%29.71 "HgN/A
5:30 AM54 °FLight rain. Overcast.24 mph82%29.71 "Hg5 mi
5:00 AM54 °FSprinkles. Passing clouds.24 mph88%29.71 "Hg4 mi
4:30 AM55 °FPartly cloudy.22 mph77%29.71 "HgN/A
4:00 AM55 °FPassing clouds.21 mph82%29.68 "HgN/A
3:30 AM55 °FSprinkles. Passing clouds.20 mph82%29.71 "HgN/A
3:00 AM55 °FPassing clouds.28 mph77%29.71 "HgN/A
2:30 AM54 °FSprinkles. Passing clouds.28 mph88%29.68 "Hg4 mi
2:00 AM55 °FSprinkles. Passing clouds.24 mph77%29.68 "HgN/A
1:30 AM55 °FSprinkles. Partly cloudy.29 mph72%29.68 "HgN/A
1:00 AM55 °FSprinkles. Partly cloudy.24 mph88%29.68 "HgN/A
12:30 AM55 °FPassing clouds.23 mph77%29.68 "HgN/A
12:00 AM57 °FSprinkles. Partly cloudy.28 mph77%29.68 "HgN/A
11:30 PM
Sun, May 24
55 °FPartly cloudy.24 mph82%29.68 "HgN/A
11:00 PM57 °FPassing clouds.24 mph72%29.68 "HgN/A
10:30 PM57 °FPassing clouds.23 mph72%29.68 "HgN/A
10:00 PM57 °FPartly cloudy.23 mph72%29.68 "HgN/A
9:30 PM57 °FPartly cloudy.24 mph72%29.68 "HgN/A
9:00 PM57 °FPartly cloudy.21 mph77%29.68 "HgN/A
8:30 PM57 °FPartly cloudy.25 mph77%29.68 "HgN/A
8:00 PM57 °FSprinkles. Passing clouds.26 mph82%29.68 "HgN/A
7:30 PM55 °FSprinkles. Passing clouds.23 mph88%29.65 "Hg4 mi
7:00 PM57 °FSprinkles. Partly cloudy.24 mph82%29.65 "HgN/A
6:30 PM57 °FPassing clouds.25 mph77%29.65 "HgN/A
6:00 PM55 °FPassing clouds.25 mph82%29.65 "HgN/A
5:30 PM55 °FPassing clouds.26 mph77%29.65 "HgN/A
5:00 PM57 °FPassing clouds.24 mph72%29.65 "HgN/A
4:30 PM57 °FPartly cloudy.25 mph77%29.62 "HgN/A
4:00 PM57 °FSprinkles. Broken clouds.29 mph77%29.62 "HgN/A
3:30 PM55 °FSprinkles. Broken clouds.25 mph88%29.62 "Hg3 mi
3:00 PM55 °FSprinkles. Broken clouds.25 mph82%29.62 "HgN/A
2:30 PM55 °FPassing clouds.25 mph82%29.62 "HgN/A
2:00 PM55 °FSprinkles. Scattered clouds.24 mph82%29.62 "HgN/A
1:30 PM57 °FScattered clouds.23 mph77%29.62 "HgN/A
1:00 PM57 °FPassing clouds.25 mph72%29.62 "HgN/A
12:30 PM57 °FBroken clouds.23 mph82%29.62 "HgN/A
12:00 PM57 °FSprinkles. Scattered clouds.25 mph82%29.62 "Hg5 mi
11:30 AM57 °FSprinkles. Broken clouds.22 mph82%29.62 "HgN/A
11:00 AM57 °FSprinkles. Broken clouds.26 mph77%29.62 "HgN/A
10:30 AM57 °FBroken clouds.21 mph82%29.59 "HgN/A
10:00 AM54 °FSprinkles. Broken clouds.22 mph88%29.59 "Hg6 mi
9:30 AM54 °FSprinkles. Broken clouds.26 mph82%29.59 "Hg6 mi
9:00 AM55 °FSprinkles. Broken clouds.24 mph82%29.56 "HgN/A
8:30 AM54 °FSprinkles. Mostly cloudy.26 mph82%29.56 "HgN/A
8:00 AM54 °FSprinkles. Mostly cloudy.22 mph88%29.53 "HgN/A
Weather by CustomWeather, © 2015

See weather overviewHow to use our weather pages